Location: Newark
(33.6333°S, 78.8500°W)
Time: 03:53:30
(UTC+00:00)

Vanguard 1 - Pass Details

Date: 01 October 2019
Orbit: 653 x 3830 km, 34.3° (Epoch: 14 October)

Event Time Altitude Azimuth Distance (km) Brightness Sun altitude
Rises 00:51:22 0° 277° (W) 3,922 14.3 -20.0°
Reaches altitude 10° 00:55:11 10° 300° (WNW) 3,400 13.4 -20.8°
Maximum altitude 00:59:51 15° 333° (NNW) 3,537 13.0 -21.7°
Drops below altitude 10° 01:05:57 10° 3° (N) 4,659 13.3 -22.9°
Enters shadow 01:11:51 - 19° (NNE) 6,102 13.8 -24.0°
